Time,TemperatureF,DewpointF,PressureIn,WindDirection,WindDirectionDegrees,WindSpeedMPH,WindSpeedGustMPH,Humidity,HourlyPrecipIn,Conditions,Clouds,dailyrainin,SoftwareType,DateUTC
2013-05-01 00:00:00,59.9,57.6,31.68,NNE,27,1.0,1.0,92,0.00,,,0.00,Wunderground v.1.15,2013-05-01 04:00:00,
2013-05-01 00:05:00,59.7,57.4,31.68,NNE,28,0.0,1.0,92,0.00,,,0.00,Wunderground v.1.15,2013-05-01 04:05:00,
2013-05-01 00:10:00,59.5,57.2,31.68,NNE,28,0.0,1.0,92,0.00,,,0.00,Wunderground v.1.15,2013-05-01 04:10:00,
2013-05-01 00:20:00,59.1,56.8,31.68,NE,34,1.0,1.0,92,0.00,,,0.00,Wunderground v.1.15,2013-05-01 04:20:00,
2013-05-01 00:30:00,59.0,57.0,31.68,North,9,1.0,5.0,93,0.00,,,0.00,Wunderground v.1.15,2013-05-01 04:30:00,
2013-05-01 00:35:00,59.0,57.0,31.68,NNE,32,2.0,5.0,93,0.00,,,0.00,Wunderground v.1.15,2013-05-01 04:35:00,
2013-05-01 00:40:00,59.0,57.0,31.68,NE,34,2.0,4.0,93,0.00,,,0.00,Wunderground v.1.15,2013-05-01 04:40:00,
2013-05-01 00:45:00,59.0,57.0,31.68,NE,40,2.0,4.0,93,0.00,,,0.00,Wunderground v.1.15,2013-05-01 04:45:00,
2013-05-01 00:50:00,59.0,57.0,31.68,NE,51,3.0,3.0,93,0.00,,,0.00,Wunderground v.1.15,2013-05-01 04:50:00,
2013-05-01 00:55:00,59.0,57.0,31.68,NE,51,2.0,3.0,93,0.00,,,0.00,Wunderground v.1.15,2013-05-01 04:55:00,
2013-05-01 01:00:00,59.0,57.0,31.68,NNE,30,2.0,2.0,93,0.00,,,0.00,Wunderground v.1.15,2013-05-01 05:00:00,
2013-05-01 01:05:00,59.0,57.0,31.68,NNE,15,2.0,2.0,93,0.00,,,0.00,Wunderground v.1.15,2013-05-01 05:05:00,
2013-05-01 01:10:00,59.0,57.0,31.68,NNE,17,2.0,3.0,93,0.00,,,0.00,Wunderground v.1.15,2013-05-01 05:10:00,
2013-05-01 01:15:00,59.0,57.0,31.68,NE,37,2.0,5.0,93,0.00,,,0.00,Wunderground v.1.15,2013-05-01 05:15:00,
2013-05-01 01:20:00,59.0,57.0,31.68,NE,51,3.0,3.0,93,0.00,,,0.00,Wunderground v.1.15,2013-05-01 05:20:00,
2013-05-01 01:25:00,59.0,57.0,31.68,NE,36,3.0,5.0,93,0.00,,,0.00,Wunderground v.1.15,2013-05-01 05:25:00,
2013-05-01 01:30:00,58.9,56.9,31.68,NE,37,3.0,3.0,93,0.00,,,0.00,Wunderground v.1.15,2013-05-01 05:30:00,
2013-05-01 01:35:00,58.8,56.8,31.68,NNE,30,3.0,6.0,93,0.00,,,0.00,Wunderground v.1.15,2013-05-01 05:35:00,
2013-05-01 01:40:00,58.8,56.8,31.68,NE,38,3.0,3.0,93,0.00,,,0.00,Wunderground v.1.15,2013-05-01 05:40:00,
2013-05-01 01:45:00,58.7,57.0,31.68,NE,40,3.0,3.0,94,0.00,,,0.00,Wunderground v.1.15,2013-05-01 05:45:00,
2013-05-01 01:50:00,58.7,57.0,31.68,NE,35,3.0,3.0,94,0.00,,,0.00,Wunderground v.1.15,2013-05-01 05:50:00,
2013-05-01 01:55:00,58.6,56.9,31.68,NE,35,3.0,3.0,94,0.00,,,0.00,Wunderground v.1.15,2013-05-01 05:55:00,
2013-05-01 02:00:00,58.6,56.9,31.68,NNE,28,2.0,3.0,94,0.00,,,0.00,Wunderground v.1.15,2013-05-01 06:00:00,
2013-05-01 02:05:00,58.5,56.8,31.68,NNE,33,3.0,3.0,94,0.00,,,0.00,Wunderground v.1.15,2013-05-01 06:05:00,
2013-05-01 02:10:00,58.5,56.8,31.68,NE,35,3.0,3.0,94,0.00,,,0.00,Wunderground v.1.15,2013-05-01 06:10:00,
2013-05-01 02:15:00,58.6,56.9,31.68,NE,41,2.0,3.0,94,0.00,,,0.00,Wunderground v.1.15,2013-05-01 06:15:00,
2013-05-01 02:20:00,58.9,57.5,31.68,NE,40,3.0,4.0,95,0.00,,,0.00,Wunderground v.1.15,2013-05-01 06:20:00,
2013-05-01 02:25:00,59.0,57.3,31.68,NE,34,5.0,7.0,94,0.00,,,0.00,Wunderground v.1.15,2013-05-01 06:25:00,
2013-05-01 02:30:00,59.0,57.3,31.68,NNE,18,5.0,5.0,94,0.00,,,0.00,Wunderground v.1.15,2013-05-01 06:30:00,
2013-05-01 02:35:00,59.1,57.4,31.68,NE,41,4.0,9.0,94,0.00,,,0.00,Wunderground v.1.15,2013-05-01 06:35:00,
2013-05-01 02:45:00,59.3,57.6,31.68,NE,34,4.0,7.0,94,0.00,,,0.00,Wunderground v.1.15,2013-05-01 06:45:00,
2013-05-01 02:50:00,59.3,57.6,31.68,NNE,33,5.0,5.0,94,0.00,,,0.00,Wunderground v.1.15,2013-05-01 06:50:00,
2013-05-01 02:55:00,59.3,57.3,31.68,NNE,30,4.0,8.0,93,0.00,,,0.00,Wunderground v.1.15,2013-05-01 06:55:00,
2013-05-01 03:00:00,59.3,57.3,31.68,NE,37,5.0,5.0,93,0.00,,,0.00,Wunderground v.1.15,2013-05-01 07:00:00,
2013-05-01 03:05:00,59.4,57.4,31.68,NE,49,5.0,6.0,93,0.00,,,0.00,Wunderground v.1.15,2013-05-01 07:05:00,
2013-05-01 03:10:00,59.4,57.4,31.68,ENE,59,5.0,6.0,93,0.00,,,0.00,Wunderground v.1.15,2013-05-01 07:10:00,
2013-05-01 03:15:00,59.5,57.2,31.68,ENE,57,6.0,6.0,92,0.00,,,0.00,Wunderground v.1.15,2013-05-01 07:15:00,
2013-05-01 03:20:00,59.6,57.3,31.68,NNE,17,6.0,6.0,92,0.00,,,0.00,Wunderground v.1.15,2013-05-01 07:20:00,
2013-05-01 03:25:00,59.6,57.3,31.68,NE,38,5.0,6.0,92,0.00,,,0.00,Wunderground v.1.15,2013-05-01 07:25:00,
2013-05-01 03:30:00,59.7,57.4,31.68,NE,37,4.0,6.0,92,0.00,,,0.00,Wunderground v.1.15,2013-05-01 07:30:00,
2013-05-01 03:35:00,59.7,57.4,31.68,NE,39,3.0,6.0,92,0.00,,,0.00,Wunderground v.1.15,2013-05-01 07:35:00,
2013-05-01 03:40:00,59.8,57.5,31.68,NE,39,3.0,4.0,92,0.00,,,0.00,Wunderground v.1.15,2013-05-01 07:40:00,
2013-05-01 03:45:00,59.8,57.5,31.68,NE,40,4.0,5.0,92,0.00,,,0.00,Wunderground v.1.15,2013-05-01 07:45:00,
2013-05-01 03:50:00,59.8,57.5,31.68,NE,46,4.0,4.0,92,0.00,,,0.00,Wunderground v.1.15,2013-05-01 07:50:00,
2013-05-01 03:55:00,59.9,57.6,31.68,NE,38,4.0,4.0,92,0.00,,,0.00,Wunderground v.1.15,2013-05-01 07:55:00,
2013-05-01 04:00:00,59.9,57.6,31.68,NE,42,4.0,4.0,92,0.00,,,0.00,Wunderground v.1.15,2013-05-01 08:00:00,
2013-05-01 04:05:00,59.9,57.6,31.68,NE,39,4.0,4.0,92,0.00,,,0.00,Wunderground v.1.15,2013-05-01 08:05:00,
2013-05-01 04:10:00,59.9,57.6,31.68,NE,35,3.0,3.0,92,0.00,,,0.00,Wunderground v.1.15,2013-05-01 08:10:00,
2013-05-01 04:15:00,59.9,57.6,31.68,NE,47,2.0,3.0,92,0.00,,,0.00,Wunderground v.1.15,2013-05-01 08:15:00,
2013-05-01 04:20:00,60.0,57.4,31.68,NE,48,3.0,7.0,91,0.00,,,0.00,Wunderground v.1.15,2013-05-01 08:20:00,
2013-05-01 04:25:00,60.0,57.4,31.68,NE,40,3.0,7.0,91,0.00,,,0.00,Wunderground v.1.15,2013-05-01 08:25:00,
2013-05-01 04:30:00,60.0,57.7,31.68,NE,40,3.0,3.0,92,0.00,,,0.00,Wunderground v.1.15,2013-05-01 08:30:00,
2013-05-01 04:35:00,60.0,57.4,31.68,NE,37,3.0,11.0,91,0.00,,,0.00,Wunderground v.1.15,2013-05-01 08:35:00,
2013-05-01 04:45:00,60.0,57.4,31.68,NNE,27,4.0,4.0,91,0.00,,,0.00,Wunderground v.1.15,2013-05-01 08:45:00,
2013-05-01 04:50:00,60.0,57.7,31.68,North,5,4.0,5.0,92,0.00,,,0.00,Wunderground v.1.15,2013-05-01 08:50:00,
2013-05-01 04:55:00,60.0,57.7,31.68,NE,38,4.0,5.0,92,0.00,,,0.00,Wunderground v.1.15,2013-05-01 08:55:00,
2013-05-01 05:00:00,60.0,57.7,31.68,East,94,4.0,4.0,92,0.00,,,0.00,Wunderground v.1.15,2013-05-01 09:00:00,
2013-05-01 05:05:00,60.1,57.8,31.68,NNE,28,4.0,7.0,92,0.00,,,0.00,Wunderground v.1.15,2013-05-01 09:05:00,
2013-05-01 05:15:00,60.1,57.8,31.68,NE,42,5.0,6.0,92,0.00,,,0.00,Wunderground v.1.15,2013-05-01 09:15:00,
2013-05-01 05:20:00,60.1,57.8,31.68,NE,48,5.0,9.0,92,0.00,,,0.00,Wunderground v.1.15,2013-05-01 09:20:00,
2013-05-01 05:30:00,59.8,57.5,31.68,NE,46,3.0,5.0,92,0.00,,,0.00,Wunderground v.1.15,2013-05-01 09:30:00,
2013-05-01 05:35:00,59.7,57.4,31.68,NNE,21,3.0,5.0,92,0.00,,,0.00,Wunderground v.1.15,2013-05-01 09:35:00,
2013-05-01 05:40:00,59.6,57.6,31.68,NE,51,3.0,3.0,93,0.00,,,0.00,Wunderground v.1.15,2013-05-01 09:40:00,
2013-05-01 05:50:00,59.8,57.8,31.68,West,280,3.0,3.0,93,0.00,,,0.00,Wunderground v.1.15,2013-05-01 09:50:00,
2013-05-01 06:00:00,59.9,57.6,31.68,NE,41,4.0,9.0,92,0.00,,,0.00,Wunderground v.1.15,2013-05-01 10:00:00,
2013-05-01 06:05:00,60.0,57.7,31.68,NE,39,5.0,9.0,92,0.00,,,0.00,Wunderground v.1.15,2013-05-01 10:05:00,
2013-05-01 06:10:00,60.1,57.8,31.68,NNE,14,5.0,6.0,92,0.00,,,0.00,Wunderground v.1.15,2013-05-01 10:10:00,
2013-05-01 06:20:00,60.2,57.9,31.68,NE,34,3.0,3.0,92,0.00,,,0.00,Wunderground v.1.15,2013-05-01 10:20:00,
2013-05-01 06:30:00,60.2,57.9,31.68,NNE,30,2.0,2.0,92,0.00,,,0.00,Wunderground v.1.15,2013-05-01 10:30:00,
2013-05-01 06:35:00,60.2,57.9,31.68,NNE,29,1.0,2.0,92,0.00,,,0.00,Wunderground v.1.15,2013-05-01 10:35:00,
2013-05-01 06:40:00,60.2,57.9,31.68,NNE,28,1.0,1.0,92,0.00,,,0.00,Wunderground v.1.15,2013-05-01 10:40:00,
2013-05-01 06:45:00,60.2,57.9,31.68,NE,36,1.0,1.0,92,0.00,,,0.00,Wunderground v.1.15,2013-05-01 10:45:00,
2013-05-01 06:50:00,60.2,57.9,31.68,NE,34,1.0,1.0,92,0.00,,,0.00,Wunderground v.1.15,2013-05-01 10:50:00,
2013-05-01 06:55:00,60.2,58.2,31.68,NNE,33,1.0,1.0,93,0.00,,,0.00,Wunderground v.1.15,2013-05-01 10:55:00,
2013-05-01 07:00:00,60.3,58.0,31.68,NNE,28,1.0,4.0,92,0.00,,,0.00,Wunderground v.1.15,2013-05-01 11:00:00,
2013-05-01 07:05:00,60.3,58.3,31.68,NNE,28,2.0,4.0,93,0.00,,,0.00,Wunderground v.1.15,2013-05-01 11:05:00,
2013-05-01 07:10:00,60.4,58.4,31.68,NE,40,2.0,2.0,93,0.00,,,0.00,Wunderground v.1.15,2013-05-01 11:10:00,
2013-05-01 07:15:00,60.4,58.1,31.68,NE,47,3.0,7.0,92,0.00,,,0.00,Wunderground v.1.15,2013-05-01 11:15:00,
2013-05-01 07:20:00,60.4,58.1,31.68,NE,40,5.0,5.0,92,0.00,,,0.00,Wunderground v.1.15,2013-05-01 11:20:00,
2013-05-01 07:25:00,60.4,58.4,31.68,NE,52,4.0,5.0,93,0.00,,,0.00,Wunderground v.1.15,2013-05-01 11:25:00,
2013-05-01 07:30:00,60.5,58.5,31.68,NNE,18,3.0,5.0,93,0.00,,,0.00,Wunderground v.1.15,2013-05-01 11:30:00,
2013-05-01 07:35:00,60.5,58.5,31.68,NE,40,4.0,5.0,93,0.00,,,0.00,Wunderground v.1.15,2013-05-01 11:35:00,
2013-05-01 07:40:00,60.5,58.5,31.68,NNE,24,4.0,5.0,93,0.00,,,0.00,Wunderground v.1.15,2013-05-01 11:40:00,
2013-05-01 07:50:00,60.8,58.8,31.68,NNE,25,5.0,5.0,93,0.00,,,0.00,Wunderground v.1.15,2013-05-01 11:50:00,
2013-05-01 07:55:00,60.9,58.6,31.68,NE,34,4.0,5.0,92,0.00,,,0.00,Wunderground v.1.15,2013-05-01 11:55:00,
2013-05-01 08:00:00,61.0,58.7,31.68,NE,44,4.0,4.0,92,0.00,,,0.00,Wunderground v.1.15,2013-05-01 12:00:00,
2013-05-01 08:05:00,61.1,58.8,31.68,NNE,17,4.0,4.0,92,0.00,,,0.00,Wunderground v.1.15,2013-05-01 12:05:00,
2013-05-01 08:10:00,61.2,58.9,31.68,NNE,32,3.0,3.0,92,0.00,,,0.00,Wunderground v.1.15,2013-05-01 12:10:00,
2013-05-01 08:15:00,61.3,59.0,31.68,NNE,26,4.0,4.0,92,0.00,,,0.00,Wunderground v.1.15,2013-05-01 12:15:00,
2013-05-01 08:20:00,61.4,59.1,31.68,NNE,24,4.0,6.0,92,0.00,,,0.00,Wunderground v.1.15,2013-05-01 12:20:00,
2013-05-01 08:25:00,61.4,59.1,31.68,NE,46,4.0,9.0,92,0.00,,,0.00,Wunderground v.1.15,2013-05-01 12:25:00,
2013-05-01 08:30:00,61.6,59.3,31.68,NNE,32,5.0,5.0,92,0.00,,,0.00,Wunderground v.1.15,2013-05-01 12:30:00,
2013-05-01 08:35:00,61.7,59.0,31.68,NE,38,6.0,6.0,91,0.00,,,0.00,Wunderground v.1.15,2013-05-01 12:35:00,
2013-05-01 08:45:00,61.6,58.9,31.68,NE,46,6.0,11.0,91,0.00,,,0.00,Wunderground v.1.15,2013-05-01 12:45:00,
2013-05-01 08:50:00,61.6,58.9,31.68,NE,39,8.0,8.0,91,0.00,,,0.00,Wunderground v.1.15,2013-05-01 12:50:00,
2013-05-01 08:55:00,61.5,59.2,31.68,NE,39,9.0,9.0,92,0.00,,,0.00,Wunderground v.1.15,2013-05-01 12:55:00,
2013-05-01 09:00:00,61.4,59.1,31.68,NNE,26,8.0,8.0,92,0.00,,,0.00,Wunderground v.1.15,2013-05-01 13:00:00,
2013-05-01 09:05:00,61.3,59.0,31.68,NE,47,8.0,8.0,92,0.00,,,0.00,Wunderground v.1.15,2013-05-01 13:05:00,
2013-05-01 09:10:00,61.4,59.4,31.68,ENE,59,7.0,11.0,93,0.00,,,0.00,Wunderground v.1.15,2013-05-01 13:10:00,
2013-05-01 09:15:00,61.5,59.5,31.68,NE,43,6.0,11.0,93,0.00,,,0.00,Wunderground v.1.15,2013-05-01 13:15:00,
2013-05-01 09:20:00,61.6,59.6,31.68,NE,48,6.0,6.0,93,0.00,,,0.00,Wunderground v.1.15,2013-05-01 13:20:00,
2013-05-01 09:25:00,61.5,59.2,31.68,ENE,67,7.0,7.0,92,0.00,,,0.00,Wunderground v.1.15,2013-05-01 13:25:00,
2013-05-01 09:30:00,61.5,59.2,31.68,NNE,24,7.0,8.0,92,0.00,,,0.00,Wunderground v.1.15,2013-05-01 13:30:00,
2013-05-01 09:35:00,61.8,59.8,31.68,ENE,61,6.0,8.0,93,0.00,,,0.00,Wunderground v.1.15,2013-05-01 13:35:00,
2013-05-01 09:45:00,62.4,59.7,31.68,NE,45,7.0,10.0,91,0.00,,,0.00,Wunderground v.1.15,2013-05-01 13:45:00,
2013-05-01 09:50:00,62.7,59.7,31.68,NE,38,7.0,12.0,90,0.00,,,0.00,Wunderground v.1.15,2013-05-01 13:50:00,
2013-05-01 09:55:00,63.1,59.8,31.68,NNE,15,8.0,12.0,89,0.00,,,0.00,Wunderground v.1.15,2013-05-01 13:55:00,
2013-05-01 10:00:00,63.3,59.7,31.68,ENE,66,9.0,9.0,88,0.00,,,0.00,Wunderground v.1.15,2013-05-01 14:00:00,
2013-05-01 10:05:00,63.3,60.3,31.68,NNE,33,8.0,13.0,90,0.00,,,0.00,Wunderground v.1.15,2013-05-01 14:05:00,
2013-05-01 10:10:00,63.2,59.9,31.68,NNE,28,7.0,10.0,89,0.00,,,0.00,Wunderground v.1.15,2013-05-01 14:10:00,
2013-05-01 10:15:00,63.4,60.1,31.68,NNE,25,8.0,10.0,89,0.00,,,0.00,Wunderground v.1.15,2013-05-01 14:15:00,
2013-05-01 10:20:00,63.6,60.0,31.68,NE,48,7.0,7.0,88,0.00,,,0.00,Wunderground v.1.15,2013-05-01 14:20:00,
2013-05-01 10:25:00,64.0,60.4,31.68,NNE,15,6.0,7.0,88,0.00,,,0.00,Wunderground v.1.15,2013-05-01 14:25:00,
2013-05-01 10:35:00,64.0,60.4,31.68,NE,44,6.0,6.0,88,0.00,,,0.00,Wunderground v.1.15,2013-05-01 14:35:00,
2013-05-01 10:40:00,63.8,60.2,31.68,East,80,5.0,5.0,88,0.00,,,0.00,Wunderground v.1.15,2013-05-01 14:40:00,
2013-05-01 10:45:00,64.1,60.5,31.68,NE,46,4.0,8.0,88,0.00,,,0.00,Wunderground v.1.15,2013-05-01 14:45:00,
2013-05-01 10:50:00,64.3,60.0,31.68,NE,48,6.0,9.0,86,0.00,,,0.00,Wunderground v.1.15,2013-05-01 14:50:00,
2013-05-01 10:55:00,64.3,60.0,31.68,NE,52,7.0,9.0,86,0.00,,,0.00,Wunderground v.1.15,2013-05-01 14:55:00,
2013-05-01 11:05:00,64.4,60.1,31.68,NNE,17,7.0,7.0,86,0.00,,,0.00,Wunderground v.1.15,2013-05-01 15:05:00,
2013-05-01 11:10:00,64.5,60.5,31.68,ENE,61,7.0,7.0,87,0.00,,,0.00,Wunderground v.1.15,2013-05-01 15:10:00,
2013-05-01 11:15:00,64.2,60.2,31.68,NE,44,8.0,8.0,87,0.00,,,0.00,Wunderground v.1.15,2013-05-01 15:15:00,
2013-05-01 11:20:00,64.2,60.2,31.68,NNE,28,8.0,8.0,87,0.00,,,0.00,Wunderground v.1.15,2013-05-01 15:20:00,
2013-05-01 11:25:00,64.3,60.3,31.68,NNE,31,6.0,8.0,87,0.00,,,0.00,Wunderground v.1.15,2013-05-01 15:25:00,
2013-05-01 11:30:00,64.3,60.3,31.68,East,91,6.0,6.0,87,0.00,,,0.00,Wunderground v.1.15,2013-05-01 15:30:00,
2013-05-01 11:35:00,64.6,60.3,31.68,NE,53,6.0,7.0,86,0.00,,,0.00,Wunderground v.1.15,2013-05-01 15:35:00,
2013-05-01 11:40:00,64.8,59.9,31.68,NE,40,7.0,7.0,84,0.00,,,0.00,Wunderground v.1.15,2013-05-01 15:40:00,
2013-05-01 11:45:00,65.0,60.0,31.68,NE,42,9.0,9.0,84,0.00,,,0.00,Wunderground v.1.15,2013-05-01 15:45:00,
2013-05-01 11:50:00,65.0,59.7,31.68,ENE,78,8.0,8.0,83,0.00,,,0.00,Wunderground v.1.15,2013-05-01 15:50:00,
2013-05-01 12:00:00,65.1,60.5,31.68,ENE,58,5.0,7.0,85,0.00,,,0.00,Wunderground v.1.15,2013-05-01 16:00:00,
2013-05-01 12:05:00,64.9,60.9,31.68,NE,34,7.0,7.0,87,0.00,,,0.00,Wunderground v.1.15,2013-05-01 16:05:00,
2013-05-01 12:10:00,64.6,60.3,31.68,NNE,32,8.0,8.0,86,0.00,,,0.00,Wunderground v.1.15,2013-05-01 16:10:00,
2013-05-01 12:15:00,64.3,60.3,31.68,ESE,115,7.0,8.0,87,0.00,,,0.00,Wunderground v.1.15,2013-05-01 16:15:00,
2013-05-01 12:20:00,64.0,59.7,31.68,NE,34,8.0,13.0,86,0.00,,,0.00,Wunderground v.1.15,2013-05-01 16:20:00,
2013-05-01 12:25:00,64.0,60.1,31.68,NE,35,9.0,13.0,87,0.00,,,0.00,Wunderground v.1.15,2013-05-01 16:25:00,
2013-05-01 12:30:00,64.4,60.4,31.68,NNE,25,7.0,9.0,87,0.00,,,0.00,Wunderground v.1.15,2013-05-01 16:30:00,
2013-05-01 12:35:00,64.8,60.5,31.68,North,10,7.0,9.0,86,0.00,,,0.00,Wunderground v.1.15,2013-05-01 16:35:00,
2013-05-01 12:45:00,65.3,60.7,31.68,NNE,30,7.0,9.0,85,0.00,,,0.00,Wunderground v.1.15,2013-05-01 16:45:00,
2013-05-01 12:50:00,65.3,60.7,31.68,NE,34,7.0,14.0,85,0.00,,,0.00,Wunderground v.1.15,2013-05-01 16:50:00,
2013-05-01 12:55:00,65.1,60.1,31.68,NE,48,8.0,14.0,84,0.00,,,0.00,Wunderground v.1.15,2013-05-01 16:55:00,
2013-05-01 13:00:00,65.4,60.4,31.68,NNE,30,8.0,8.0,84,0.00,,,0.00,Wunderground v.1.15,2013-05-01 17:00:00,
2013-05-01 13:05:00,65.6,60.6,31.68,NNE,27,7.0,8.0,84,0.00,,,0.00,Wunderground v.1.15,2013-05-01 17:05:00,
2013-05-01 13:10:00,65.3,60.3,31.68,NNE,19,7.0,14.0,84,0.00,,,0.00,Wunderground v.1.15,2013-05-01 17:10:00,
2013-05-01 13:15:00,64.9,59.9,31.68,NNE,28,7.0,14.0,84,0.00,,,0.00,Wunderground v.1.15,2013-05-01 17:15:00,
2013-05-01 13:20:00,64.6,60.0,31.68,ESE,110,6.0,6.0,85,0.00,,,0.00,Wunderground v.1.15,2013-05-01 17:20:00,
2013-05-01 13:25:00,64.5,60.2,31.68,NE,51,7.0,7.0,86,0.00,,,0.00,Wunderground v.1.15,2013-05-01 17:25:00,
2013-05-01 13:30:00,64.8,60.2,31.68,ENE,75,7.0,7.0,85,0.00,,,0.00,Wunderground v.1.15,2013-05-01 17:30:00,
2013-05-01 13:35:00,64.7,60.1,31.68,ESE,106,6.0,7.0,85,0.00,,,0.00,Wunderground v.1.15,2013-05-01 17:35:00,
2013-05-01 13:40:00,64.8,60.2,31.68,NE,45,6.0,6.0,85,0.00,,,0.00,Wunderground v.1.15,2013-05-01 17:40:00,
2013-05-01 13:45:00,64.9,60.3,31.68,ESE,118,6.0,6.0,85,0.00,,,0.00,Wunderground v.1.15,2013-05-01 17:45:00,
2013-05-01 13:50:00,65.1,60.5,31.68,NNE,25,6.0,6.0,85,0.00,,,0.00,Wunderground v.1.15,2013-05-01 17:50:00,
2013-05-01 13:55:00,65.2,60.6,31.68,NNE,31,6.0,6.0,85,0.00,,,0.00,Wunderground v.1.15,2013-05-01 17:55:00,
2013-05-01 14:00:00,65.2,60.6,31.68,NE,52,5.0,5.0,85,0.00,,,0.00,Wunderground v.1.15,2013-05-01 18:00:00,
2013-05-01 14:05:00,64.9,60.3,31.68,NNE,21,5.0,7.0,85,0.00,,,0.00,Wunderground v.1.15,2013-05-01 18:05:00,
2013-05-01 14:10:00,65.0,60.4,31.68,NNE,30,5.0,5.0,85,0.00,,,0.00,Wunderground v.1.15,2013-05-01 18:10:00,
2013-05-01 14:15:00,65.2,60.6,31.68,NE,51,6.0,8.0,85,0.00,,,0.00,Wunderground v.1.15,2013-05-01 18:15:00,
2013-05-01 14:25:00,65.3,60.0,31.68,NE,38,7.0,9.0,83,0.00,,,0.00,Wunderground v.1.15,2013-05-01 18:25:00,
2013-05-01 14:30:00,65.1,60.1,31.68,NNE,13,7.0,7.0,84,0.00,,,0.00,Wunderground v.1.15,2013-05-01 18:30:00,
2013-05-01 14:35:00,64.9,59.9,31.68,NNE,28,7.0,7.0,84,0.00,,,0.00,Wunderground v.1.15,2013-05-01 18:35:00,
2013-05-01 14:40:00,64.8,60.2,31.68,NNE,28,6.0,7.0,85,0.00,,,0.00,Wunderground v.1.15,2013-05-01 18:40:00,
2013-05-01 14:45:00,64.6,60.0,31.68,NNE,27,6.0,11.0,85,0.00,,,0.00,Wunderground v.1.15,2013-05-01 18:45:00,
2013-05-01 14:55:00,64.3,60.0,31.68,NNE,13,7.0,12.0,86,0.00,,,0.00,Wunderground v.1.15,2013-05-01 18:55:00,
2013-05-01 15:05:00,64.6,60.3,31.68,NNE,32,6.0,7.0,86,0.00,,,0.00,Wunderground v.1.15,2013-05-01 19:05:00,
2013-05-01 15:10:00,64.8,60.5,31.68,ESE,103,6.0,6.0,86,0.00,,,0.00,Wunderground v.1.15,2013-05-01 19:10:00,
2013-05-01 15:15:00,65.3,61.0,31.68,NNE,33,5.0,10.0,86,0.00,,,0.00,Wunderground v.1.15,2013-05-01 19:15:00,
2013-05-01 15:20:00,65.5,60.5,31.68,NNE,15,5.0,9.0,84,0.00,,,0.00,Wunderground v.1.15,2013-05-01 19:20:00,
2013-05-01 15:25:00,65.4,60.4,31.68,NNE,26,6.0,9.0,84,0.00,,,0.00,Wunderground v.1.15,2013-05-01 19:25:00,
2013-05-01 15:30:00,65.3,60.7,31.68,NNE,28,7.0,13.0,85,0.00,,,0.00,Wunderground v.1.15,2013-05-01 19:30:00,
2013-05-01 15:35:00,65.2,60.6,31.68,NE,46,7.0,13.0,85,0.00,,,0.00,Wunderground v.1.15,2013-05-01 19:35:00,
2013-05-01 15:40:00,65.0,60.4,31.68,ESE,110,6.0,6.0,85,0.00,,,0.00,Wunderground v.1.15,2013-05-01 19:40:00,
2013-05-01 15:45:00,64.7,60.4,31.68,NNE,17,6.0,10.0,86,0.00,,,0.00,Wunderground v.1.15,2013-05-01 19:45:00,
2013-05-01 15:50:00,64.8,60.5,31.68,ESE,105,7.0,7.0,86,0.00,,,0.00,Wunderground v.1.15,2013-05-01 19:50:00,
2013-05-01 15:55:00,64.8,60.5,31.68,NE,36,6.0,7.0,86,0.00,,,0.00,Wunderground v.1.15,2013-05-01 19:55:00,
2013-05-01 16:05:00,65.0,60.4,31.68,NE,44,5.0,9.0,85,0.00,,,0.00,Wunderground v.1.15,2013-05-01 20:05:00,
2013-05-01 16:10:00,65.0,60.4,31.68,ENE,61,5.0,9.0,85,0.00,,,0.00,Wunderground v.1.15,2013-05-01 20:10:00,
2013-05-01 16:15:00,64.9,60.3,31.68,NE,49,6.0,9.0,85,0.00,,,0.00,Wunderground v.1.15,2013-05-01 20:15:00,
2013-05-01 16:20:00,64.9,60.6,31.68,NE,53,5.0,7.0,86,0.00,,,0.00,Wunderground v.1.15,2013-05-01 20:20:00,
2013-05-01 16:25:00,64.9,60.3,31.68,NE,41,5.0,11.0,85,0.00,,,0.00,Wunderground v.1.15,2013-05-01 20:25:00,
2013-05-01 16:30:00,64.9,60.3,31.68,ESE,113,7.0,7.0,85,0.00,,,0.00,Wunderground v.1.15,2013-05-01 20:30:00,
2013-05-01 16:35:00,64.8,60.2,31.68,ENE,72,6.0,7.0,85,0.00,,,0.00,Wunderground v.1.15,2013-05-01 20:35:00,
2013-05-01 16:40:00,64.8,60.5,31.68,NE,49,4.0,4.0,86,0.00,,,0.00,Wunderground v.1.15,2013-05-01 20:40:00,
2013-05-01 16:50:00,64.7,60.4,31.68,NE,44,6.0,8.0,86,0.00,,,0.00,Wunderground v.1.15,2013-05-01 20:50:00,
2013-05-01 16:55:00,64.7,60.4,31.68,NNE,18,6.0,8.0,86,0.00,,,0.00,Wunderground v.1.15,2013-05-01 20:55:00,
2013-05-01 17:00:00,64.7,60.4,31.68,NE,48,6.0,6.0,86,0.00,,,0.00,Wunderground v.1.15,2013-05-01 21:00:00,
2013-05-01 17:05:00,64.9,60.6,31.68,NE,53,6.0,6.0,86,0.00,,,0.00,Wunderground v.1.15,2013-05-01 21:05:00,
2013-05-01 17:15:00,65.0,60.7,31.68,ENE,61,6.0,6.0,86,0.00,,,0.00,Wunderground v.1.15,2013-05-01 21:15:00,
2013-05-01 17:20:00,65.1,60.8,31.68,NE,56,5.0,10.0,86,0.00,,,0.00,Wunderground v.1.15,2013-05-01 21:20:00,
2013-05-01 17:30:00,65.2,60.6,31.68,NNE,18,6.0,8.0,85,0.00,,,0.00,Wunderground v.1.15,2013-05-01 21:30:00,
2013-05-01 17:40:00,65.4,60.4,31.68,ENE,59,8.0,11.0,84,0.00,,,0.00,Wunderground v.1.15,2013-05-01 21:40:00,
2013-05-01 17:45:00,65.5,60.9,31.68,NE,37,7.0,11.0,85,0.00,,,0.00,Wunderground v.1.15,2013-05-01 21:45:00,
2013-05-01 17:50:00,65.5,60.9,31.68,NE,49,7.0,7.0,85,0.00,,,0.00,Wunderground v.1.15,2013-05-01 21:50:00,
2013-05-01 17:55:00,65.4,60.4,31.68,NNE,33,7.0,10.0,84,0.00,,,0.00,Wunderground v.1.15,2013-05-01 21:55:00,
2013-05-01 18:00:00,65.3,60.7,31.68,ENE,60,7.0,7.0,85,0.00,,,0.00,Wunderground v.1.15,2013-05-01 22:00:00,
2013-05-01 18:05:00,65.2,60.6,31.68,NNE,25,6.0,7.0,85,0.00,,,0.00,Wunderground v.1.15,2013-05-01 22:05:00,
2013-05-01 18:15:00,65.1,60.1,31.68,NE,41,6.0,6.0,84,0.00,,,0.00,Wunderground v.1.15,2013-05-01 22:15:00,
2013-05-01 18:25:00,65.3,60.7,31.68,NNE,32,7.0,9.0,85,0.00,,,0.00,Wunderground v.1.15,2013-05-01 22:25:00,
2013-05-01 18:30:00,65.3,60.7,31.68,NE,52,7.0,7.0,85,0.00,,,0.00,Wunderground v.1.15,2013-05-01 22:30:00,
2013-05-01 18:35:00,65.3,60.7,31.68,NE,40,6.0,7.0,85,0.00,,,0.00,Wunderground v.1.15,2013-05-01 22:35:00,
2013-05-01 18:45:00,65.0,60.4,31.68,NNE,26,6.0,9.0,85,0.00,,,0.00,Wunderground v.1.15,2013-05-01 22:45:00,
2013-05-01 18:50:00,64.8,60.2,31.68,NNE,32,7.0,7.0,85,0.00,,,0.00,Wunderground v.1.15,2013-05-01 22:50:00,
2013-05-01 19:00:00,64.5,60.2,31.68,NE,43,7.0,7.0,86,0.00,,,0.00,Wunderground v.1.15,2013-05-01 23:00:00,
2013-05-01 19:05:00,64.4,60.1,31.68,NE,43,6.0,7.0,86,0.00,,,0.00,Wunderground v.1.15,2013-05-01 23:05:00,
2013-05-01 19:15:00,64.3,60.3,31.68,NE,44,6.0,6.0,87,0.00,,,0.00,Wunderground v.1.15,2013-05-01 23:15:00,
2013-05-01 19:20:00,64.2,59.9,31.68,ENE,63,6.0,6.0,86,0.00,,,0.00,Wunderground v.1.15,2013-05-01 23:20:00,
2013-05-01 19:25:00,64.1,60.2,31.68,East,90,7.0,7.0,87,0.00,,,0.00,Wunderground v.1.15,2013-05-01 23:25:00,
2013-05-01 19:30:00,64.0,60.1,31.68,NNE,13,6.0,6.0,87,0.00,,,0.00,Wunderground v.1.15,2013-05-01 23:30:00,
2013-05-01 19:35:00,63.9,60.0,31.68,ENE,71,5.0,6.0,87,0.00,,,0.00,Wunderground v.1.15,2013-05-01 23:35:00,
2013-05-01 19:40:00,63.9,60.3,31.68,NNE,33,5.0,5.0,88,0.00,,,0.00,Wunderground v.1.15,2013-05-01 23:40:00,
2013-05-01 19:45:00,63.7,60.1,31.68,NE,49,6.0,6.0,88,0.00,,,0.00,Wunderground v.1.15,2013-05-01 23:45:00,
2013-05-01 19:50:00,63.6,60.3,31.68,NE,53,6.0,6.0,89,0.00,,,0.00,Wunderground v.1.15,2013-05-01 23:50:00,
2013-05-01 19:55:00,63.2,60.2,31.68,ENE,62,5.0,6.0,90,0.00,,,0.00,Wunderground v.1.15,2013-05-01 23:55:00,
2013-05-01 20:05:00,62.5,60.1,31.68,NNE,19,6.0,7.0,92,0.00,,,0.00,Wunderground v.1.15,2013-05-02 00:05:00,
2013-05-01 20:10:00,62.3,59.9,31.68,NE,34,5.0,5.0,92,0.00,,,0.00,Wunderground v.1.15,2013-05-02 00:10:00,
2013-05-01 20:15:00,62.1,60.1,31.68,NE,34,5.0,5.0,93,0.00,,,0.00,Wunderground v.1.15,2013-05-02 00:15:00,
2013-05-01 20:20:00,61.9,60.2,31.68,NNE,29,6.0,10.0,94,0.00,,,0.00,Wunderground v.1.15,2013-05-02 00:20:00,
2013-05-01 20:25:00,61.8,60.1,31.68,NE,44,7.0,10.0,94,0.00,,,0.00,Wunderground v.1.15,2013-05-02 00:25:00,
2013-05-01 20:30:00,61.6,60.2,31.68,NNW,345,6.0,6.0,95,0.00,,,0.00,Wunderground v.1.15,2013-05-02 00:30:00,
2013-05-01 20:35:00,61.5,60.1,31.68,NNE,22,5.0,6.0,95,0.00,,,0.00,Wunderground v.1.15,2013-05-02 00:35:00,
2013-05-01 20:40:00,61.4,60.0,31.68,ENE,71,5.0,8.0,95,0.00,,,0.00,Wunderground v.1.15,2013-05-02 00:40:00,
2013-05-01 20:50:00,61.2,60.1,31.68,NE,36,4.0,4.0,96,0.00,,,0.00,Wunderground v.1.15,2013-05-02 00:50:00,
2013-05-01 20:55:00,61.1,60.0,31.68,NNE,33,4.0,5.0,96,0.00,,,0.00,Wunderground v.1.15,2013-05-02 00:55:00,
2013-05-01 21:00:00,61.1,60.0,31.68,ENE,63,4.0,4.0,96,0.00,,,0.00,Wunderground v.1.15,2013-05-02 01:00:00,
2013-05-01 21:05:00,61.0,60.1,31.68,NE,40,4.0,4.0,97,0.00,,,0.00,Wunderground v.1.15,2013-05-02 01:05:00,
2013-05-01 21:10:00,61.0,60.1,31.68,ENE,62,4.0,4.0,97,0.00,,,0.00,Wunderground v.1.15,2013-05-02 01:10:00,
2013-05-01 21:15:00,61.0,60.1,31.68,NE,46,4.0,4.0,97,0.00,,,0.00,Wunderground v.1.15,2013-05-02 01:15:00,
2013-05-01 21:20:00,60.9,60.0,31.68,NE,46,5.0,7.0,97,0.00,,,0.00,Wunderground v.1.15,2013-05-02 01:20:00,
2013-05-01 21:25:00,60.9,60.0,31.68,NE,38,5.0,7.0,97,0.00,,,0.00,Wunderground v.1.15,2013-05-02 01:25:00,
2013-05-01 21:30:00,60.9,60.0,31.68,NE,37,5.0,5.0,97,0.00,,,0.00,Wunderground v.1.15,2013-05-02 01:30:00,
2013-05-01 21:40:00,60.9,60.0,31.68,NE,46,5.0,6.0,97,0.00,,,0.00,Wunderground v.1.15,2013-05-02 01:40:00,
2013-05-01 21:45:00,60.9,60.0,31.68,ENE,57,6.0,6.0,97,0.00,,,0.00,Wunderground v.1.15,2013-05-02 01:45:00,
2013-05-01 21:50:00,61.0,60.1,31.68,NNE,31,6.0,6.0,97,0.00,,,0.00,Wunderground v.1.15,2013-05-02 01:50:00,
2013-05-01 22:00:00,61.0,60.1,31.68,ENE,63,6.0,6.0,97,0.00,,,0.00,Wunderground v.1.15,2013-05-02 02:00:00,
2013-05-01 22:05:00,61.1,60.2,31.68,NE,34,6.0,9.0,97,0.00,,,0.01,Wunderground v.1.15,2013-05-02 02:05:00,
2013-05-01 22:10:00,61.1,60.2,31.68,NE,50,5.0,5.0,97,0.00,,,0.01,Wunderground v.1.15,2013-05-02 02:10:00,
2013-05-01 22:15:00,61.1,60.2,31.68,NE,34,5.0,10.0,97,0.00,,,0.01,Wunderground v.1.15,2013-05-02 02:15:00,
2013-05-01 22:20:00,61.1,60.2,31.68,NNE,23,5.0,5.0,97,0.00,,,0.01,Wunderground v.1.15,2013-05-02 02:20:00,
2013-05-01 22:25:00,61.1,60.2,31.68,NNE,30,5.0,7.0,97,0.00,,,0.01,Wunderground v.1.15,2013-05-02 02:25:00,
2013-05-01 22:30:00,61.1,60.2,31.68,NNE,30,6.0,6.0,97,0.00,,,0.01,Wunderground v.1.15,2013-05-02 02:30:00,
2013-05-01 22:35:00,61.1,60.2,31.68,ENE,70,6.0,6.0,97,0.00,,,0.01,Wunderground v.1.15,2013-05-02 02:35:00,
2013-05-01 22:40:00,61.1,60.2,31.68,ENE,57,5.0,8.0,97,0.00,,,0.01,Wunderground v.1.15,2013-05-02 02:40:00,
2013-05-01 22:45:00,61.1,60.2,31.68,NE,43,5.0,8.0,97,0.00,,,0.01,Wunderground v.1.15,2013-05-02 02:45:00,
2013-05-01 22:50:00,61.1,60.2,31.68,NE,36,6.0,6.0,97,0.00,,,0.01,Wunderground v.1.15,2013-05-02 02:50:00,
2013-05-01 22:55:00,61.1,60.2,31.68,ENE,65,6.0,6.0,97,0.00,,,0.01,Wunderground v.1.15,2013-05-02 02:55:00,
2013-05-01 23:00:00,61.2,60.3,31.68,NNE,27,5.0,5.0,97,0.00,,,0.01,Wunderground v.1.15,2013-05-02 03:00:00,
2013-05-01 23:05:00,61.2,60.3,31.68,NE,34,5.0,7.0,97,0.00,,,0.01,Wunderground v.1.15,2013-05-02 03:05:00,
2013-05-01 23:10:00,61.2,60.3,31.68,NNW,341,7.0,7.0,97,0.00,,,0.01,Wunderground v.1.15,2013-05-02 03:10:00,
2013-05-01 23:15:00,61.2,60.3,31.68,NE,44,8.0,8.0,97,0.00,,,0.01,Wunderground v.1.15,2013-05-02 03:15:00,
2013-05-01 23:20:00,61.3,60.4,31.68,NE,39,7.0,7.0,97,0.00,,,0.01,Wunderground v.1.15,2013-05-02 03:20:00,
2013-05-01 23:25:00,61.3,60.4,31.68,NE,42,6.0,9.0,97,0.00,,,0.01,Wunderground v.1.15,2013-05-02 03:25:00,
2013-05-01 23:35:00,61.3,60.4,31.68,North,11,6.0,12.0,97,0.00,,,0.01,Wunderground v.1.15,2013-05-02 03:35:00,
2013-05-01 23:40:00,61.3,60.4,31.68,NE,41,6.0,6.0,97,0.00,,,0.01,Wunderground v.1.15,2013-05-02 03:40:00,
2013-05-01 23:45:00,61.3,60.4,31.68,ENE,63,4.0,6.0,97,0.00,,,0.01,Wunderground v.1.15,2013-05-02 03:45:00,
2013-05-01 23:50:00,61.2,60.3,31.68,ENE,71,4.0,4.0,97,0.00,,,0.01,Wunderground v.1.15,2013-05-02 03:50:00,
2013-05-01 23:55:00,61.2,60.3,31.68,NE,42,5.0,6.0,97,0.00,,,0.01,Wunderground v.1.15,2013-05-02 03:55:00,